Date String (YYYY-MM-DD hh:mm:ss) UTC,Instrument flags,absolute air pressure of the measurement (hPa),sample flow rate (lpm),inlet stack bypass flow (lpm),air temperature of the measurement (°C),ambient temperature measured by the external sensor (°C),aerosol sample conditioner tube jacket temperature (°C),OPC LED temperature (°C),internal box temperature (°C),relative humidity of the measurement (%),span deviation,mass concentration of particles derived from Lorenz-Mie calculation of OPC scattering (μg/m³),mass concentration of particles derived from Lorenz-Mie calculation of OPC scattering (μg/m³),mass concentration of particles derived from Lorenz-Mie calculation of OPC scattering (μg/m³)
DateTimeUTC,F1_M11,P_M11,Q1_M11,Q2_M11,T1_M11,T2_M11,T3_M11,T4_M11,T5_M11,U1_M11,ZSPAN_M11,X2_M11,X0_M11,X1_M11
2024-02-06 04:00:00,SystemResetWarning,0828.2,5.01,000.00,022.3,021.5,000.0,030.8,024.1,17.0,0000.0,0002.93,0006.12,0002.53
2024-02-06 04:01:00,SystemResetWarning,0828.2,5.00,000.00,022.3,021.5,000.0,030.8,024.1,17.0,0000.0,0003.06,0006.45,0002.62
2024-02-06 04:02:00,SystemResetWarning,0828.2,4.98,000.00,022.3,021.5,000.0,030.8,024.1,17.0,0000.0,0003.14,0006.73,0002.70
2024-02-06 04:03:00,SystemResetWarning,0828.2,5.00,000.00,022.3,021.5,000.0,030.8,024.1,17.0,0000.0,0003.21,0006.91,0002.78
2024-02-06 04:04:00,SystemResetWarning,0828.2,5.01,000.00,022.3,021.5,000.0,030.8,024.0,17.0,0000.0,0003.25,0006.94,0002.85
2024-02-06 04:05:00,SystemResetWarning,0828.1,5.01,000.00,022.3,021.5,000.0,030.8,024.0,17.0,0000.0,0003.27,0006.97,0002.92
2024-02-06 04:06:00,SystemResetWarning,0828.1,5.00,000.00,022.3,021.5,000.0,030.8,024.0,17.0,0000.0,0003.30,0007.07,0002.99
2024-02-06 04:07:00,SystemResetWarning,0828.1,5.00,000.00,022.2,021.5,000.0,030.8,024.0,17.0,0000.0,0003.32,0007.20,0003.01
2024-02-06 04:08:00,SystemResetWarning,0828.0,4.99,000.00,022.2,021.5,000.0,030.7,024.0,16.8,0000.0,0003.32,0007.21,0003.02
2024-02-06 04:09:00,SystemResetWarning,0828.0,4.99,000.00,022.2,021.5,000.0,030.7,024.0,16.9,0000.0,0003.30,0006.02,0003.01
2024-02-06 04:10:00,SystemResetWarning,0828.0,5.00,000.00,022.2,021.4,000.0,030.7,024.0,16.8,0000.0,0003.28,0006.89,0003.00
2024-02-06 04:11:00,SystemResetWarning,0828.0,5.00,000.00,022.2,021.4,000.0,030.7,024.0,16.8,0000.0,0003.24,0006.18,0002.99
2024-02-06 04:12:00,SystemResetWarning,0828.0,5.00,000.00,022.2,021.4,000.0,030.7,024.0,16.9,0000.0,0003.21,0005.89,0002.97
2024-02-06 04:13:00,SystemResetWarning,0828.0,5.00,000.00,022.2,021.4,000.0,030.7,023.9,16.9,0000.0,0003.21,0005.91,0002.97
2024-02-06 04:14:00,SystemResetWarning,0827.9,5.00,000.00,022.2,021.4,000.0,030.7,023.9,16.7,0000.0,0003.20,0005.92,0002.96
2024-02-06 04:15:00,SystemResetWarning,0827.9,5.00,000.00,022.2,021.4,000.0,030.7,023.9,16.5,0000.0,0003.16,0005.83,0002.93
2024-02-06 04:16:00,SystemResetWarning,0827.9,5.00,000.00,022.2,021.4,000.0,030.6,023.9,16.5,0000.0,0003.15,0005.87,0002.89
2024-02-06 04:17:00,SystemResetWarning,0827.9,5.00,000.00,022.2,021.4,000.0,030.6,023.9,16.3,0000.0,0003.12,0005.81,0002.83
2024-02-06 04:18:00,SystemResetWarning,0827.8,5.00,000.00,022.1,021.4,000.0,030.6,023.9,16.2,0000.0,0003.08,0005.79,0002.77
2024-02-06 04:19:00,SystemResetWarning,0827.8,5.01,000.00,022.1,021.4,000.0,030.6,023.9,16.2,0000.0,0003.00,0005.65,0002.70
2024-02-06 04:20:00,SystemResetWarning,0827.8,4.99,000.00,022.1,021.4,000.0,030.6,023.9,16.2,0000.0,0002.92,0005.50,0002.64
2024-02-06 04:21:00,SystemResetWarning,0827.8,4.99,000.00,022.1,021.4,000.0,030.6,023.9,16.2,0000.0,0002.84,0004.07,0002.56
2024-02-06 04:22:00,SystemResetWarning,0827.8,5.00,000.00,022.1,021.4,000.0,030.6,023.9,16.3,0000.0,0002.78,0003.85,0002.49
2024-02-06 04:23:00,SystemResetWarning,0827.7,5.00,000.00,022.1,021.4,000.0,030.6,023.9,16.4,0000.0,0002.71,0003.75,0002.41
2024-02-06 04:24:00,SystemResetWarning,0827.7,5.00,000.00,022.1,021.4,000.0,030.6,023.9,16.5,0000.0,0002.56,0003.45,0002.31
2024-02-06 04:25:00,SystemResetWarning,0827.7,5.00,000.00,022.1,021.4,000.0,030.5,023.9,16.3,0000.0,0002.43,0003.22,0002.21
2024-02-06 04:26:00,SystemResetWarning,0827.6,5.00,000.00,022.1,021.4,000.0,030.5,023.8,16.2,0000.0,0002.36,0003.18,0002.14
2024-02-06 04:27:00,SystemResetWarning,0827.6,5.01,000.00,022.1,021.3,000.0,030.5,023.8,16.3,0000.0,0002.27,0003.01,0002.07
2024-02-06 04:28:00,SystemResetWarning,0827.5,5.00,000.00,022.1,021.3,000.0,030.5,023.8,16.4,0000.0,0002.19,0002.87,0002.00
2024-02-06 04:29:00,SystemResetWarning,0827.5,5.00,000.00,022.1,021.3,000.0,030.5,023.9,16.3,0000.0,0002.16,0002.73,0001.97
2024-02-06 04:30:00,SystemResetWarning,0827.5,5.00,000.00,022.0,021.3,000.0,030.5,023.8,16.3,0000.0,0002.12,0002.78,0001.93
2024-02-06 04:31:00,SystemResetWarning,0827.5,5.00,000.00,022.0,021.3,000.0,030.5,023.8,16.2,0000.0,0002.06,0002.73,0001.89
2024-02-06 04:32:00,SystemResetWarning,0827.5,4.99,000.00,022.0,021.3,000.0,030.5,023.8,16.2,0000.0,0002.00,0002.67,0001.83
2024-02-06 04:33:00,SystemResetWarning,0827.5,4.99,000.00,022.0,021.3,000.0,030.5,023.8,16.2,0000.0,0001.96,0002.63,0001.79
2024-02-06 04:34:00,SystemResetWarning,0827.6,5.00,000.00,022.0,021.3,000.0,030.5,023.8,16.2,0000.0,0001.91,0002.54,0001.76
2024-02-06 04:35:00,SystemResetWarning,0827.5,5.00,000.00,022.0,021.3,000.0,030.5,023.8,16.2,0000.0,0001.88,0002.55,0001.75
2024-02-06 04:36:00,SystemResetWarning,0827.5,5.00,000.00,022.0,021.3,000.0,030.5,023.8,16.1,0000.0,0001.88,0002.57,0001.74
2024-02-06 04:37:00,SystemResetWarning,0827.5,5.00,000.00,022.0,021.2,000.0,030.5,023.8,16.1,0000.0,0001.88,0002.53,0001.73
2024-02-06 04:38:00,SystemResetWarning,0827.5,4.99,000.00,022.0,021.2,000.0,030.4,023.8,16.1,0000.0,0001.88,0003.92,0001.71
2024-02-06 04:39:00,SystemResetWarning,0827.5,4.99,000.00,022.0,021.2,000.0,030.4,023.7,16.2,0000.0,0001.90,0004.39,0001.72
2024-02-06 04:40:00,SystemResetWarning,0827.5,5.00,000.00,022.0,021.2,000.0,030.4,023.7,16.2,0000.0,0001.86,0004.33,0001.70
2024-02-06 04:41:00,SystemResetWarning,0827.6,5.01,000.00,021.9,021.2,000.0,030.4,023.7,16.3,0000.0,0001.84,0004.22,0001.66
2024-02-06 04:42:00,SystemResetWarning,0827.6,5.00,000.00,021.9,021.2,000.0,030.4,023.7,16.3,0000.0,0001.86,0005.37,0001.64
2024-02-06 04:43:00,SystemResetWarning,0827.6,5.01,000.00,021.9,021.2,000.0,030.4,023.7,16.4,0000.0,0001.88,0005.57,0001.62
2024-02-06 04:44:00,SystemResetWarning,0828.0,5.00,000.00,021.9,021.1,000.0,030.4,023.7,16.5,0000.0,0001.89,0005.62,0001.61
2024-02-06 04:45:00,SystemResetWarning,0827.5,5.01,000.00,021.9,021.1,000.0,030.4,023.6,16.6,0000.0,0001.93,0005.85,0001.62
2024-02-06 04:46:00,SystemResetWarning,0827.4,5.00,000.00,021.9,021.1,000.0,030.4,023.6,16.6,0000.0,0001.95,0005.85,0001.63
2024-02-06 04:47:00,SystemResetWarning,0827.8,5.00,000.00,021.9,021.1,000.0,030.4,023.6,16.5,0000.0,0001.97,0005.91,0001.62
2024-02-06 04:48:00,SystemResetWarning,0827.5,5.00,000.00,021.9,021.1,000.0,030.3,023.6,16.5,0000.0,0001.96,0005.88,0001.63
2024-02-06 04:49:00,SystemResetWarning,0827.5,5.00,000.00,021.9,021.1,000.0,030.3,023.6,16.6,0000.0,0001.96,0004.43,0001.64
2024-02-06 04:50:00,SystemResetWarning,0827.5,5.00,000.00,021.9,021.1,000.0,030.3,023.6,16.6,0000.0,0001.98,0004.53,0001.64
2024-02-06 04:51:00,SystemResetWarning,0827.5,5.00,000.00,021.9,021.1,000.0,030.3,023.6,16.7,0000.0,0002.04,0005.80,0001.66
2024-02-06 04:52:00,SystemResetWarning,0827.5,4.99,000.00,021.8,021.1,000.0,030.3,023.6,16.6,0000.0,0002.11,0006.07,0001.68
2024-02-06 04:53:00,SystemResetWarning,0827.5,4.99,000.00,021.8,021.1,000.0,030.3,023.6,16.6,0000.0,0002.13,0005.10,0001.70
2024-02-06 04:54:00,SystemResetWarning,0827.5,4.99,000.00,021.8,021.1,000.0,030.3,023.6,16.7,0000.0,0002.17,0005.42,0001.75
2024-02-06 04:55:00,SystemResetWarning,0827.5,5.01,000.00,021.8,021.1,000.0,030.3,023.6,16.7,0000.0,0002.21,0005.63,0001.77
2024-02-06 04:56:00,SystemResetWarning,0827.6,5.01,000.00,021.8,021.1,000.0,030.3,023.6,16.7,0000.0,0002.20,0005.52,0001.77
2024-02-06 04:57:00,SystemResetWarning,0827.5,4.99,000.00,021.8,021.1,000.0,030.2,023.5,16.8,0000.0,0002.20,0005.46,0001.79
2024-02-06 04:58:00,SystemResetWarning,0827.5,4.99,000.00,021.8,021.0,000.0,030.2,023.5,16.9,0000.0,0002.18,0005.38,0001.81
2024-02-06 04:59:00,SystemResetWarning,0827.9,5.00,000.00,021.8,021.0,000.0,030.2,023.5,16.9,0000.0,0002.18,0005.37,0001.81
